Theta_e
319 317 317 321 322 322 327 330 331 332 332 329 336 353 355 354 359 360 352 350 347 346 347 347 344 336 333 333 332 334 335 334 334 333 333 333 333 333 334 334 335 337 336 330 319 320 325 330 330
317 316 321 318 322 325 326 328 331 331 330 329 346 350 352 352 352 355 355 353 345 344 346 347 343 335 334 333 333 334 336 335 334 333 334 335 336 336 337 338 338 337 331 323 319 323 328 330 331
316 317 317 318 319 323 325 328 331 331 334 330 334 342 349 350 354 353 354 350 347 346 346 346 342 335 335 335 333 334 336 336 335 334 333 334 335 337 338 339 339 333 324 318 319 324 327 331 333
314 314 314 319 321 322 325 324 325 328 336 329 339 346 348 349 349 353 350 345 346 347 345 345 342 337 335 336 335 334 335 336 336 335 334 332 333 333 335 335 332 327 322 318 320 325 329 329 332
313 311 315 319 320 322 323 324 324 335 332 330 343 348 351 349 352 352 347 344 344 347 346 345 344 342 337 336 337 337 336 336 337 337 335 334 332 331 331 330 327 323 320 317 319 323 328 332 332
311 310 315 317 318 321 321 321 323 335 332 329 346 347 346 351 352 352 349 343 339 342 345 346 346 346 342 340 338 339 340 336 337 338 338 336 334 332 331 329 326 322 320 316 316 319 323 326 325
312 311 314 316 318 318 320 320 320 321 332 331 339 341 335 341 351 351 351 345 338 338 342 345 346 346 346 344 343 342 342 341 337 337 339 339 335 331 329 327 324 321 320 317 316 316 316 317 317
312 310 315 314 317 317 319 317 317 321 329 331 331 331 331 329 346 351 351 350 346 343 341 342 345 346 346 346 346 346 345 344 341 338 338 341 339 335 328 324 322 320 319 317 317 317 317 317 318
311 310 311 314 316 317 317 318 319 318 326 326 327 328 328 331 335 349 354 354 354 352 343 340 342 343 343 344 344 345 346 346 345 342 339 340 343 339 333 328 323 320 320 318 318 318 318 319 319
309 308 311 314 317 317 316 317 317 319 318 323 325 326 327 326 326 332 352 354 355 354 347 343 343 343 341 341 342 344 346 347 347 346 341 340 343 343 337 331 326 321 320 319 318 318 319 319 318
310 310 313 316 316 316 316 316 318 318 319 319 320 320 319 321 322 322 334 353 355 354 352 347 343 342 340 341 342 342 347 349 349 348 345 342 342 345 342 336 330 325 322 320 319 318 319 319 318
312 311 312 314 315 316 316 317 318 317 317 318 318 319 317 316 318 320 322 333 350 355 354 350 347 345 344 341 339 339 341 342 346 347 347 346 344 345 344 341 335 328 325 324 321 319 319 319 319
311 311 312 314 315 314 314 316 317 317 317 317 317 318 318 317 317 318 319 320 323 347 352 352 346 343 340 341 338 338 339 340 337 341 343 346 346 346 345 345 342 338 329 327 325 321 321 319 318
312 312 312 313 313 313 315 315 316 317 317 316 316 316 316 316 317 318 318 319 331 339 345 350 348 341 343 343 342 344 342 340 338 338 338 340 343 345 346 345 344 343 338 332 327 325 321 319 319
311 312 312 313 314 314 314 315 315 316 316 316 315 314 315 315 316 316 318 319 320 344 344 348 348 347 345 344 345 345 345 344 343 342 341 337 337 338 343 345 344 344 342 337 335 333 329 322 327
315 313 313 312 314 315 314 315 315 314 314 315 314 315 317 316 316 318 318 318 330 345 350 349 348 347 346 346 345 335 347 347 345 346 344 341 341 339 339 341 341 343 343 339 337 337 336 327 326
311 315 315 316 315 315 314 314 315 314 314 315 315 314 315 315 315 317 319 323 328 344 351 351 352 351 348 348 342 346 353 354 352 348 344 343 342 341 340 340 341 343 345 340 338 340 338 331 329
314 315 314 315 316 315 314 314 315 314 313 314 314 314 314 314 314 316 322 326 330 336 343 336 337 343 345 346 343 334 339 347 350 352 352 350 346 343 341 342 340 343 345 343 341 340 338 334 334
314 314 314 315 315 316 314 314 313 313 314 314 314 314 315 315 315 318 317 324 326 328 328 330 331 331 331 337 337 336 346 350 349 350 351 351 352 353 347 342 341 343 343 344 342 342 341 339 337
315 314 314 314 315 315 316 316 315 315 315 314 315 314 314 314 315 315 319 323 326 328 329 331 331 331 329 329 330 331 331 333 334 337 344 351 351 349 351 349 344 342 344 344 343 341 340 340 338
316 315 316 317 317 316 316 315 315 315 316 316 314 314 315 314 315 316 322 324 326 329 327 326 326 326 326 325 326 325 324 325 326 328 330 333 335 339 346 346 347 345 344 343 343 341 340 339 339
318 316 316 316 316 315 315 316 313 314 315 316 315 314 313 314 315 320 322 322 324 326 325 326 325 325 323 321 322 324 325 326 323 323 324 325 326 328 329 328 340 347 345 344 343 343 341 340 339
316 317 317 317 315 315 315 313 313 315 316 315 315 315 315 314 318 321 320 319 323 327 328 325 323 321 320 327 325 323 326 325 322 323 327 325 325 327 328 330 325 333 342 343 339 340 339 328 341
316 317 314 313 312 314 314 315 314 315 316 315 316 319 319 317 320 318 318 318 319 325 323 321 320 322 321 320 320 321 321 322 323 325 327 330 330 331 332 333 334 334 335 339 337 332 331 331 337
316 314 315 316 314 316 316 317 314 315 321 321 322 319 317 316 317 316 314 313 317 320 320 320 320 320 320 319 319 320 320 322 326 325 326 324 329 331 332 332 333 333 333 337 336 331 326 329 338
314 313 314 319 318 317 318 320 320 321 323 322 320 318 316 314 314 314 314 313 315 318 319 319 319 319 319 319 319 319 322 323 324 323 325 325 328 328 326 323 324 328 332 335 336 336 328 329 335
321 319 315 319 320 320 319 319 321 324 324 323 321 319 318 316 315 315 313 314 317 318 318 319 319 319 320 319 319 320 320 320 322 322 321 322 324 323 322 321 318 320 322 327 330 334 335 334 333
321 320 323 320 325 325 324 323 323 326 323 322 320 319 318 318 315 313 312 314 315 317 318 319 318 318 318 319 319 320 319 320 320 318 318 319 321 319 319 317 317 317 317 318 324 330 332 332 331
320 320 320 320 325 324 321 322 322 323 322 321 321 320 319 318 316 314 313 313 314 315 316 317 318 319 319 319 319 319 318 319 318 318 317 319 318 318 317 315 318 318 316 316 317 319 325 329 329
318 320 324 326 326 323 316 320 320 319 319 320 320 318 318 319 317 316 314 313 313 314 315 316 317 319 319 319 319 319 318 319 318 317 317 317 316 315 313 312 313 316 316 316 317 318 319 321 325
Wind_Speed
18 21 22 4 3 4 3 6 3 8 3 2 4 12 5 3 4 3 2 31 29 34 31 28 27 25 25 24 24 22 21 21 20 20 21 22 22 22 21 20 18 16 14 13 13 14 14 14 13
18 21 5 2 3 2 5 5 9 6 4 3 8 8 7 4 6 8 11 21 38 36 32 29 27 27 27 25 24 23 21 21 20 20 20 20 20 20 18 17 15 13 12 11 12 14 14 12 12
15 11 2 3 2 5 5 3 6 21 5 5 4 5 5 6 9 12 14 33 36 34 32 29 27 27 27 26 24 23 22 21 20 20 20 19 18 17 16 15 13 11 11 11 12 13 13 12 11
7 6 3 2 7 6 7 11 8 15 6 6 8 5 4 4 6 17 32 34 34 32 32 29 27 25 25 25 24 22 22 21 19 18 18 18 17 16 15 13 12 11 11 11 11 11 11 10 9
1 3 1 2 6 6 8 6 10 12 2 3 3 5 3 5 23 34 31 34 34 31 30 29 27 25 24 24 23 22 21 21 19 17 16 16 16 15 14 13 12 12 12 11 11 11 10 9 9
2 2 1 4 6 7 7 5 8 7 1 6 10 7 3 21 31 30 30 30 30 31 29 28 26 25 24 24 23 22 21 21 20 19 18 16 15 15 14 13 13 12 12 12 12 12 11 10 9
4 3 5 3 4 7 10 4 7 10 5 2 10 6 4 7 28 31 29 29 30 29 31 30 28 26 25 23 22 21 21 21 21 19 18 17 16 15 15 14 14 13 13 13 12 12 12 12 10
4 4 3 5 4 10 4 13 4 6 3 6 6 6 5 4 26 27 28 31 31 32 32 32 29 27 25 23 22 22 21 21 22 21 19 18 16 17 17 16 16 15 15 15 14 14 13 12 10
3 2 4 6 7 6 5 5 5 5 3 3 4 8 9 13 21 28 21 22 27 30 32 35 35 32 28 24 22 22 22 22 22 22 22 21 20 19 19 20 19 18 18 18 17 16 15 14 12
4 5 8 6 1 3 11 4 7 6 8 6 6 5 15 14 10 21 19 17 21 26 34 36 37 38 35 31 27 25 24 26 27 26 25 24 22 21 20 20 21 21 22 21 20 19 18 17 16
6 6 5 6 6 4 6 9 3 3 1 1 2 2 5 4 3 4 21 30 36 34 31 37 38 39 37 34 31 28 25 24 25 26 25 25 24 24 23 23 23 24 24 25 24 23 22 22 19
3 7 7 12 10 5 6 5 2 5 7 5 6 3 6 6 4 6 2 15 21 25 33 30 30 34 34 34 31 30 31 29 28 28 28 28 28 27 27 27 28 27 27 28 26 26 25 24 21
5 8 8 15 13 7 6 9 8 6 7 7 4 3 3 3 2 1 6 6 15 28 33 34 32 36 37 34 32 31 30 29 28 30 30 30 31 30 29 29 28 28 30 30 28 27 26 25 22
6 11 14 10 14 5 6 7 2 6 7 8 6 8 7 6 5 1 6 12 3 16 29 34 37 32 32 32 31 28 29 28 30 32 33 33 33 34 34 35 33 33 30 32 33 31 30 30 25
6 5 8 10 10 8 8 7 7 9 8 9 9 8 9 9 7 7 11 12 7 11 23 32 37 35 29 29 29 27 33 31 30 31 30 32 34 34 34 36 37 38 37 34 34 31 31 30 27
3 3 3 6 6 7 8 11 8 11 9 11 11 8 7 7 9 13 16 7 5 19 24 29 31 30 30 27 25 21 20 25 29 29 27 30 32 32 34 37 39 40 37 34 34 32 31 35 35
5 2 5 8 6 3 6 10 13 10 8 10 10 10 9 9 6 15 11 11 16 20 23 24 24 26 30 29 28 16 16 16 24 30 32 34 33 34 37 37 38 37 34 37 35 33 35 36 37
5 3 5 6 4 4 11 16 19 11 9 11 11 9 9 9 11 17 18 23 25 25 24 20 19 18 19 22 24 18 18 20 24 25 26 26 31 38 41 39 38 35 34 37 37 39 36 34 30
6 5 8 10 11 4 7 6 13 10 4 8 7 6 7 9 10 18 21 26 30 30 30 28 27 20 16 12 9 9 12 20 22 25 26 29 32 30 36 42 42 40 40 42 43 39 35 36 34
9 10 11 8 11 7 3 6 6 4 6 8 9 10 11 7 8 9 9 28 27 29 27 26 25 19 14 11 6 2 6 8 13 16 21 29 31 32 36 36 42 44 45 42 43 38 31 28 32
10 9 6 7 6 2 1 6 4 6 4 6 7 8 9 12 12 6 10 23 26 27 24 23 21 17 13 10 6 2 7 10 13 17 20 19 18 15 26 38 36 38 40 42 36 34 38 28 29
14 7 7 5 2 6 4 6 5 7 8 6 9 9 10 12 7 8 14 18 26 25 24 22 18 14 11 6 3 1 3 8 15 18 22 24 24 22 21 21 25 37 33 36 34 21 23 29 22
6 5 4 2 4 1 6 3 7 2 7 9 10 10 11 13 13 17 16 21 28 27 28 23 18 13 8 8 3 2 5 9 15 21 24 25 26 26 23 21 22 22 29 33 27 32 39 50 24
6 2 5 4 3 0 5 5 4 4 6 8 11 10 13 8 14 14 18 26 25 30 27 25 20 16 11 7 3 3 8 12 15 18 21 21 24 27 24 20 19 22 28 27 34 40 42 36 34
4 5 3 4 3 5 5 4 7 9 5 3 7 8 6 9 9 10 9 9 22 25 24 23 20 16 11 7 3 4 9 12 12 13 14 17 19 20 21 20 19 20 24 30 33 38 38 32 25
6 8 5 5 4 4 4 4 5 3 5 4 9 7 9 9 7 7 7 9 15 19 20 18 15 13 10 9 7 9 8 7 9 11 11 13 12 13 16 21 21 21 21 25 30 32 37 39 36
3 3 5 3 1 2 4 6 4 7 10 8 8 7 7 6 6 7 7 12 17 20 19 17 15 14 13 11 11 13 14 13 12 11 13 14 14 15 18 21 24 23 20 20 22 28 34 35 38
5 2 1 3 1 4 4 4 4 3 7 10 10 8 8 3 3 5 3 8 13 15 17 18 18 18 18 18 18 19 18 16 14 14 14 13 14 14 17 21 24 25 24 20 18 20 23 29 32
5 3 3 2 5 4 2 5 4 5 4 6 5 3 2 3 2 3 2 5 9 12 15 19 19 20 22 22 22 21 20 19 19 20 19 18 17 15 15 18 20 23 25 22 19 20 19 26 31
2 1 4 4 4 2 3 6 7 4 1 3 3 6 7 6 6 5 5 5 10 15 17 19 18 25 27 28 26 23 22 22 22 24 25 23 24 21 18 21 21 22 23 23 21 21 21 20 21
Wind_Direction
318 324 326 348 40 62 281 276 289 301 20 245 23 98 134 81 139 199 115 164 168 160 161 161 157 154 150 148 147 146 145 142 140 138 136 135 135 133 132 133 136 137 138 138 136 133 132 130 127
318 329 343 54 98 64 281 254 265 249 287 37 105 109 63 33 66 111 108 166 165 158 160 164 160 159 155 154 153 153 152 148 146 143 142 141 139 138 137 137 138 138 137 136 136 135 136 133 134
318 321 73 118 152 183 230 230 7 309 333 352 120 72 95 114 128 146 163 163 163 157 160 165 164 163 161 158 158 158 158 154 151 150 149 148 148 148 147 145 144 144 142 143 145 144 146 145 147
337 3 7 119 245 248 233 280 282 275 313 3 138 57 46 115 126 155 152 159 160 159 161 166 168 167 165 164 163 165 165 162 158 157 156 155 156 157 156 155 154 152 151 153 152 151 154 157 158
302 67 348 246 261 255 271 280 277 263 47 13 84 110 67 47 126 140 150 161 162 161 164 168 172 172 171 171 170 171 171 170 165 163 164 164 164 165 165 165 164 162 162 163 163 163 167 174 176
355 98 75 228 253 276 278 314 306 221 288 122 90 106 74 136 135 153 154 161 165 160 167 172 176 178 179 178 179 179 177 178 177 175 172 174 174 174 175 174 174 173 175 175 175 177 180 186 189
150 100 223 234 270 301 280 344 318 313 199 310 141 114 146 133 161 161 162 157 164 166 170 177 181 184 186 186 187 188 187 185 187 187 185 182 182 184 185 186 185 185 186 187 188 191 193 195 197
147 114 246 227 184 266 354 329 340 339 242 117 115 154 159 180 160 167 163 163 164 170 173 178 182 187 190 191 194 195 196 196 193 194 195 193 194 196 195 195 196 196 196 197 197 201 205 207 208
105 83 233 236 177 270 4 334 298 283 298 77 138 132 159 139 120 146 144 159 168 176 179 181 184 187 190 193 195 200 201 202 202 201 202 202 203 204 206 207 204 203 204 205 206 207 210 211 211
134 163 227 217 221 313 313 340 307 13 4 7 80 91 146 152 161 142 157 172 177 184 187 188 190 188 187 189 193 196 199 201 203 204 205 208 212 215 216 218 217 213 213 212 212 212 216 219 216
194 202 226 265 259 197 260 300 240 334 19 21 49 63 32 18 349 253 166 180 190 196 190 194 195 193 188 190 191 193 197 202 207 210 210 214 218 220 220 223 223 227 223 219 218 219 220 221 224
236 238 226 264 264 261 259 245 246 189 250 179 202 224 131 98 80 22 331 171 202 201 203 202 197 195 192 193 195 198 198 200 207 212 216 217 221 226 231 226 228 228 230 233 228 225 225 229 228
180 254 250 252 251 233 262 258 237 223 261 302 258 205 177 129 132 22 321 301 176 204 211 210 198 199 199 197 198 202 207 208 211 217 219 221 224 229 233 239 238 232 234 236 237 241 242 240 236
222 228 250 263 256 236 215 258 231 232 235 275 284 255 222 210 214 241 301 297 108 184 198 208 200 194 198 200 197 201 208 215 218 222 225 224 227 230 233 235 234 238 234 239 239 237 237 241 241
238 252 268 254 240 233 183 273 241 256 269 265 267 248 236 227 235 233 252 260 297 182 183 200 198 190 192 198 202 208 219 225 226 228 231 231 231 232 235 236 237 241 239 237 243 246 248 248 244
351 98 278 274 214 231 154 254 253 242 236 247 258 261 235 242 229 248 252 243 161 171 177 183 187 191 192 199 198 212 220 225 234 235 237 238 237 238 239 237 240 242 241 243 243 246 244 242 239
9 243 260 281 207 233 168 254 257 245 219 233 242 242 212 223 240 241 259 182 168 163 166 169 185 193 193 204 224 218 238 229 239 239 239 238 242 243 242 242 241 241 242 240 242 244 243 241 240
225 231 271 252 264 190 270 253 245 231 207 230 244 219 203 206 222 217 173 156 147 150 157 153 157 173 200 217 216 242 250 256 256 252 244 248 247 243 243 242 246 244 241 237 237 241 242 240 247
234 237 251 268 268 211 236 279 253 229 188 227 229 244 228 223 229 217 183 169 153 151 153 153 149 153 159 150 182 240 257 252 254 266 265 259 258 262 253 246 244 245 242 239 236 236 236 239 240
242 249 265 276 268 192 321 305 299 257 220 198 212 222 228 233 236 236 177 167 158 151 149 145 138 141 140 142 144 259 308 297 296 290 288 281 276 274 273 258 249 245 244 241 238 236 237 233 231
243 219 233 216 279 214 47 318 320 296 277 243 216 226 229 222 223 204 139 151 149 145 144 140 137 136 133 125 128 210 281 289 298 295 305 313 323 323 282 278 268 250 245 247 244 235 235 237 234
256 249 228 252 320 270 129 275 273 260 279 262 264 261 230 224 207 138 144 155 153 151 147 144 140 131 119 100 101 32 324 315 314 315 313 315 322 328 319 308 293 271 253 253 258 262 267 251 249
238 323 284 264 248 85 318 83 270 322 305 290 290 279 264 238 163 155 157 154 146 147 147 141 135 126 113 127 118 330 302 301 306 307 309 313 322 331 332 322 315 302 273 254 253 236 241 272 245
278 331 21 51 101 358 242 160 286 272 266 305 297 292 275 172 152 144 145 144 141 146 143 142 141 140 145 154 168 284 302 305 306 307 306 321 333 334 336 332 326 317 297 269 264 257 235 237 255
187 64 343 344 340 218 240 270 222 264 322 291 296 325 61 115 120 130 132 128 138 146 148 149 152 153 161 175 213 280 297 301 299 308 323 334 345 349 351 345 344 328 310 298 276 271 259 256 253
181 152 157 217 215 247 336 260 230 263 295 6 100 72 54 70 104 122 136 138 147 152 157 162 168 170 185 205 238 268 276 305 299 314 337 346 353 355 344 341 343 344 326 309 296 278 257 254 249
333 130 192 107 54 96 231 297 318 17 22 31 85 104 122 132 147 155 163 154 156 166 175 181 184 189 197 222 236 241 248 261 267 287 307 320 325 334 339 342 340 343 336 326 313 296 273 261 258
114 268 0 27 233 254 292 238 217 63 78 46 19 26 39 2 223 197 171 170 176 179 187 193 201 210 220 218 220 229 245 254 260 273 284 297 306 324 332 335 337 340 338 327 323 297 277 267 270
7 23 30 110 141 199 193 251 214 133 125 136 156 49 3 70 36 285 305 254 227 218 211 213 219 219 214 217 223 231 238 242 249 258 267 269 279 295 309 320 326 329 331 330 311 303 292 273 273
163 48 87 137 266 211 172 256 211 145 249 254 270 195 182 258 255 252 251 261 261 260 240 222 226 218 224 225 222 221 230 234 235 246 252 257 268 277 293 307 314 319 321 323 311 296 281 280 279